Regional Weather Roundup
Issued by NWS San Diego, CA

Home | Current Version | Previous Version | Text Only | Print | Product List | Glossary On
Versions: 1 2 3 4 5 6 7 8 9 10 11 12 13 14 15 16 17 18 19 20 21 22 23 24 25 26 27 28 29 30 31 32 33 34 35 36 37 38 39 40 41 42 43 44 45 46 47 48 49 50
000
ASUS46 KSGX 290011
RWRSGX

SAN DIEGO HOURLY WEATHER ROUNDUP
NATIONAL WEATHER SERVICE SAN DIEGO CA
500 PM PDT FRI AUG 28 2015

NOTE: "FAIR" INDICATES FEW OR NO CLOUDS BELOW 12,000 FEET WITH NO
SIGNIFICANT WEATHER AND/OR OBSTRUCTIONS TO VISIBILITY.

CAZ042-043-060-061-PZZ750-775-290100-

GREATER SAN DIEGO AREA

CITY           SKY/WX    TMP DP  RH WIND       PRES   REMARKS
LINDBERGH FLD  MOSUNNY   86  63  45 NW7       29.83S
POINT LOMA       N/A     85  71  62 W7          N/A
NATIONAL CITY    N/A     85  70  61 SW2       29.83S
CHULA VISTA      N/A     86  69  57 W1        29.75F
IMPERIAL BEACH MOSUNNY   79  64  60 W9        29.83S
BROWN FIELD    SUNNY     90  48  23 NW6       29.84S
MIRAMAR MCAS   MOSUNNY   95  48  20 NW7       29.84S
MONTGOMERY FLD SUNNY     91  62  37 W8        29.83S

$$

NORTH SAN DIEGO COUNTY

CITY           SKY/WX    TMP DP  RH WIND       PRES   REMARKS
CAMP PENDLETON   N/A     88  53  30 MISG      29.81F
OCEANSIDE AP   SUNNY     86  61  42 SW12      29.81S
OCEANSIDE HBR    N/A     79  74  83 SW5       29.84F
VISTA            N/A     91  58  32 SW1       29.80F
CARLSBAD       SUNNY     85  56  37 W8        29.82F
DEL MAR          N/A     83  71  67 CALM      29.84F
FALLBROOK        N/A     93  47  20 SW3       29.80S
ESCONDIDO        N/A     95  55  26 NW7       29.83S
SAN MARCOS       N/A     93  55  27 NW6       29.79F
POWAY            N/A     99  51  19 SW3       29.81F HX  96

$$

EAST SAN DIEGO COUNTY

CITY           SKY/WX    TMP DP  RH WIND       PRES   REMARKS
RAMONA         SUNNY     95  47  19 W9        29.88S
SANTEE LAKES     N/A     97  55  24 W5        29.79S HX  95
LA MESA          N/A     94  50  21 SW3       29.75S
JAMUL            N/A     96  59  29 NW2       29.80F HX  95
DESCANSO N       N/A     92  52  25 W2        29.70S
CAMPO            N/A     96  50  20 W10G20    29.91R

$$

ORANGE COUNTY AND THE LOS ANGELES BASIN

CITY           SKY/WX    TMP DP  RH WIND       PRES   REMARKS
JOHN WAYNE AP  MOSUNNY   87  62  43 VRB7      29.81F
LAGUNA BEACH     N/A     87  73  63 SW3       29.77F
LAKE FOREST FR   N/A     98  51  20 NW3       29.70F HX  95
SANTA ANA        N/A     94  63  36 SW2       29.76F
HUNTINGTON BCH   N/A     85  70  60 SW8       29.83F
LOS ALAMITOS   MOSUNNY   90  61  37 S9        29.80F
FULLERTON      SUNNY     93  53  25 S8        29.79F
LONG BEACH     SUNNY     94  56  27 NW13      29.80F
L.A. AP        MOSUNNY   82  61  48 W14       29.83S
L.A. DOWNTOWN  SUNNY     89  56  32 VRB3      29.81F

$$

THE INLAND EMPIRE

CITY           SKY/WX    TMP DP  RH WIND       PRES   REMARKS
CORONA         SUNNY     99  52  20 W14G22    29.80F HX  96
CHINO          MOSUNNY  100  49  17 SW16      29.82S HX  97
ONTARIO        MOSUNNY  101  48  16 W14G24    29.82F HX  97
SAN BERNARDINO MOSUNNY  102  43  13 SW14      29.82F HX  98
RIVERSIDE AP   SUNNY    101  47  16 W15G21    29.81S HX  97
MORENO VALLEY    N/A    102  47  15 W1        29.84F HX  98
MARCH ARB      SUNNY    100  46  15 NW16      29.85S HX  96
HORSETHIEF CYN   N/A    101  45  14 SW8       29.80F HX  96
PERRIS           N/A     99  44  15 W9        29.85S HX  95
MENIFEE          N/A    104  52  17 W7        29.87S HX 101
HEMET EAST       N/A     99  45  16 W6        29.81R HX  95
FRENCH VALLEY  FAIR      99  48  18 S15       29.85S HX  95
TEMECULA         N/A     97  47  18 S7        29.78F

$$

SAN BERNARDINO AND RIVERSIDE COUNTY MOUNTAINS

CITY           SKY/WX    TMP DP  RH WIND       PRES   REMARKS
BIG BEAR AP    PTSUNNY   79  43  27 S8        30.27S
ANGELUS OAKS     N/A     84  51  32 CALM      29.72F
PINE COVE        N/A     81  49  32 NW2       29.82F

$$

SOUTHERN DESERT INCLUDING THE COACHELLA VALLEY

CITY           SKY/WX    TMP DP  RH WIND       PRES   REMARKS
PALM SPRINGS   MOSUNNY  111  54  15 E9        29.73F HX 109
THOUSAND PALMS   N/A    110  54  15 SE7       29.68F HX 108
PALM DESERT      N/A    110  60  19 CALM      26.81F HX 112
THERMAL        SUNNY    109  55  17 S9        29.66F HX 108
BLYTHE         MOSUNNY  110  59  19 S8        29.72F HX 111
IMPERIAL AP    SUNNY    112  55  15 E8        29.68F HX 111
EL CENTRO NAS  MOSUNNY  110  53  15 CALM      29.70F HX 108
YUMA AZ        PTSUNNY  110  59  19 S6        29.70F HX 111
MEXICALI       MOSUNNY  109  52  15 CALM      29.71F HX 107

$$

UPPER DESERT

CITY           SKY/WX    TMP DP  RH WIND       PRES   REMARKS
VICTORVILLE AP MOSUNNY  102  41  12 S18G24    29.92F HX  97
HESPERIA         N/A     97  49  19 W12       29.86F
APPLE VALLEY     N/A     98  42  14 S7G20     29.96S
PALMDALE       SUNNY    100  45  15 W21       29.92F HX  96
LANCASTER      SUNNY    100  46  16 W22G28    29.91S HX  96
EDWARDS AFB    PTSUNNY  103  42  12 SW17      29.86F HX  98
DAGGETT        SUNNY    108  40  10 W9        29.83F HX 102
29 PALMS N     SUNNY    104  52  17 SE12      29.91F HX 101
NEEDLES        MOSUNNY  110  50  13 E9        29.75F HX 107

$$

REGIONAL REPORTS

CITY           SKY/WX    TMP DP  RH WIND       PRES   REMARKS
SANTA BARBARA  SUNNY     85  57  38 W13       29.81F
SANDBERG       SUNNY     93  41  16 W7        30.12S
LAS VEGAS NV   MOSUNNY  105  47  14 E9        29.82F HX 101
PHOENIX AZ     MOSUNNY  107  51  15 VRB5      29.75F HX 104
TIJUANA        MOSUNNY   91  46  21 W8        29.85F
ENSENADA NW      N/A     79  32  18 S3        29.81F

$$

OFFSHORE ISLANDS

CITY           SKY/WX    TMP DP  RH WIND       PRES   REMARKS
CATALINA ARPT  SUNNY     85  46  25 W12       29.92F
SAN NICOLAS IS SUNNY    N/A N/A N/A W12       29.86F

$$

MARINE AND OFFSHORE BUOY REPORTS

STATION/POSITION SKY/WX   TEMP    WIND        PRES    SWELL
                          AIR SEA DIR/SP/G            HT/PER/DIR
                          (F)     (DEG/KT/KT) (MB)    (FT/S/D)
TANNER BANKS               69 71  310/ 16/ 17 1010.7F   3/320/15
S CLEMENTE BASIN           72 74  260/ 10/ 12 1009.6F   3/220/15
SO. S. ROSA ISLA           68 68  300/ 16/ 19 1009.6F   3/15
W. S. BARBARA CH           68 69  310/ 17/ 21 1009.6F   3/210/16
M. S. BARBARA CH           71 72  240/  8/ 10 1010.3F
S. MONICA BASIN            75 75  260/ 10/ 12 1010.1F   2/270/15
S PEDRO CHANNEL               74                N/A     2/270/14
DANA POINT                    77                N/A     2/210/15
OCEANSIDE OFFSHR              77                N/A     2/200/15
TORREY PINES OTR                                N/A     2/230/14
MISSION BAY BUOY                                N/A     2/200/15
POINT LOMA SOUTH              75                N/A     2/190/15

$$



USA.gov is the U.S. government's official web portal to all federal, state and local government web resources and services.